�������l�o���
Date,Time,MP-1(��Sv/h),MP-2(��Sv/h),MP-3(��Sv/h),MP-4(��Sv/h),MP-5(��Sv/h),MP-6(��Sv/h),MP-7(��Sv/h),MP-8(��Sv/h),����,����(m/s),���J
2019/06/25,00:00,0.730,1.029,0.705,1.277,0.935,0.423,0.736,0.699,��,0.6,��
2019/06/25,00:10,0.731,1.029,0.706,1.281,0.935,0.424,0.735,0.700,-,CALM,��
2019/06/25,00:20,0.730,1.028,0.707,1.279,0.935,0.422,0.737,0.700,��,0.6,��
2019/06/25,00:30,0.729,1.029,0.706,1.280,0.937,0.421,0.734,0.699,-,CALM,��
2019/06/25,00:40,0.732,1.029,0.706,1.277,0.938,0.423,0.734,0.699,-,CALM,��
2019/06/25,00:50,0.731,1.031,0.707,1.278,0.938,0.422,0.735,0.699,��쐼,1.2,��
2019/06/25,01:00,0.731,1.028,0.705,1.276,0.936,0.423,0.735,0.699,��쐼,1.2,��
2019/06/25,01:10,0.731,1.031,0.707,1.279,0.938,0.422,0.735,0.700,�쐼,0.6,��
2019/06/25,01:20,0.730,1.030,0.707,1.279,0.938,0.423,0.734,0.700,���쐼,0.9,��
2019/06/25,01:30,0.729,1.029,0.707,1.277,0.938,0.423,0.736,0.698,���쐼,1.4,��
2019/06/25,01:40,0.729,1.030,0.708,1.282,0.937,0.424,0.734,0.698,-,CALM,��
2019/06/25,01:50,0.733,1.030,0.707,1.281,0.936,0.425,0.734,0.700,���쐼,0.9,��
2019/06/25,02:00,0.732,1.028,0.707,1.278,0.937,0.422,0.736,0.700,�k��,0.8,��
2019/06/25,02:10,0.731,1.031,0.707,1.280,0.936,0.422,0.735,0.699,-,CALM,��
2019/06/25,02:20,0.729,1.028,0.706,1.278,0.937,0.423,0.735,0.700,-,CALM,��
2019/06/25,02:30,0.730,1.029,0.708,1.280,0.938,0.423,0.735,0.698,��,0.9,��
2019/06/25,02:40,0.731,1.027,0.705,1.278,0.938,0.424,0.735,0.700,�k�k��,1.7,��
2019/06/25,02:50,0.732,1.032,0.705,1.280,0.938,0.424,0.736,0.699,���k��,1.1,��
2019/06/25,03:00,0.730,1.030,0.705,1.281,0.938,0.423,0.735,0.698,-,CALM,��
2019/06/25,03:10,0.730,1.028,0.707,1.280,0.937,0.423,0.738,0.700,-,CALM,��
2019/06/25,03:20,0.730,1.030,0.706,1.281,0.939,0.424,0.735,0.701,��,1.1,��
2019/06/25,03:30,0.730,1.029,0.708,1.282,0.938,0.425,0.737,0.700,��,3.1,��
2019/06/25,03:40,0.732,1.034,0.708,1.281,0.939,0.424,0.735,0.699,��,4.0,��
2019/06/25,03:50,0.733,1.031,0.707,1.280,0.940,0.424,0.737,0.700,��,2.2,��
2019/06/25,04:00,0.731,1.031,0.708,1.279,0.939,0.423,0.736,0.700,��,1.7,��
2019/06/25,04:10,0.730,1.030,0.709,1.282,0.938,0.424,0.736,0.701,��,2.3,��
2019/06/25,04:20,0.733,1.031,0.708,1.280,0.938,0.423,0.734,0.698,��쓌,2.6,��
2019/06/25,04:30,0.730,1.032,0.705,1.282,0.938,0.423,0.736,0.699,��쓌,2.9,��
2019/06/25,04:40,0.731,1.031,0.706,1.279,0.939,0.422,0.736,0.700,��,2.6,��
2019/06/25,04:50,0.730,1.032,0.708,1.280,0.938,0.424,0.735,0.700,��쓌,1.5,��
2019/06/25,05:00,0.733,1.031,0.706,1.282,0.938,0.423,0.737,0.701,��쓌,1.2,��
2019/06/25,05:10,0.732,1.032,0.707,1.281,0.938,0.424,0.736,0.700,��쓌,1.5,��
2019/06/25,05:20,0.730,1.030,0.706,1.282,0.939,0.424,0.736,0.700,�쓌,1.5,��
2019/06/25,05:30,0.730,1.031,0.708,1.282,0.938,0.424,0.735,0.701,��,0.9,��
2019/06/25,05:40,0.731,1.029,0.708,1.282,0.938,0.425,0.733,0.701,��,0.9,��
2019/06/25,05:50,0.732,1.032,0.706,1.281,0.939,0.424,0.736,0.701,-,CALM,��
2019/06/25,06:00,0.732,1.030,0.706,1.282,0.940,0.424,0.734,0.700,��쓌,0.9,��
2019/06/25,06:10,0.731,1.033,0.709,1.283,0.939,0.424,0.734,0.698,��쓌,1.4,��
2019/06/25,06:20,0.731,1.033,0.708,1.279,0.940,0.422,0.736,0.700,��쓌,0.6,��
2019/06/25,06:30,0.731,1.030,0.708,1.282,0.939,0.424,0.736,0.699,��,2.0,��
2019/06/25,06:40,0.731,1.034,0.707,1.284,0.938,0.424,0.736,0.698,��,1.9,��
2019/06/25,06:50,0.734,1.033,0.709,1.285,0.940,0.424,0.736,0.699,��,2.3,��
2019/06/25,07:00,0.732,1.031,0.709,1.281,0.938,0.423,0.736,0.698,��쓌,1.7,��
2019/06/25,07:10,0.731,1.034,0.707,1.281,0.940,0.424,0.735,0.697,��,1.7,��
2019/06/25,07:20,0.731,1.033,0.709,1.283,0.940,0.422,0.736,0.698,��쓌,2.3,��
2019/06/25,07:30,0.730,1.030,0.708,1.281,0.940,0.422,0.735,0.699,��쓌,2.3,��
2019/06/25,07:40,0.733,1.029,0.708,1.282,0.940,0.421,0.735,0.697,��쓌,2.5,��
2019/06/25,07:50,0.733,1.030,0.708,1.284,0.938,0.422,0.735,0.697,��,3.2,��
2019/06/25,08:00,0.732,1.029,0.709,1.280,0.940,0.421,0.738,0.699,��,3.2,��
2019/06/25,08:10,0.732,1.032,0.706,1.281,0.939,0.424,0.737,0.699,��쐼,2.0,��
2019/06/25,08:20,0.732,1.030,0.708,1.281,0.939,0.424,0.736,0.695,��,2.5,��
2019/06/25,08:30,0.731,1.031,0.705,1.285,0.937,0.422,0.738,0.698,��쓌,3.3,��
2019/06/25,08:40,0.733,1.030,0.706,1.284,0.941,0.422,0.738,0.700,��쓌,2.8,��
2019/06/25,08:50,0.734,1.032,0.706,1.285,0.942,0.425,0.737,0.699,��쓌,4.0,��
2019/06/25,09:00,0.734,1.034,0.708,1.284,0.941,0.425,0.738,0.698,��쓌,4.5,��
2019/06/25,09:10,0.733,1.033,0.706,1.286,0.942,0.423,0.739,0.700,��쓌,3.8,��
2019/06/25,09:20,0.735,1.032,0.708,1.282,0.943,0.426,0.738,0.701,��쓌,3.8,��
2019/06/25,09:30,0.736,1.035,0.707,1.285,0.942,0.424,0.737,0.698,��쓌,5.2,��
2019/06/25,09:40,0.736,1.034,0.707,1.283,0.944,0.423,0.738,0.700,��쓌,5.1,��
2019/06/25,09:50,0.736,1.037,0.706,1.284,0.943,0.425,0.738,0.699,��쓌,4.6,��
2019/06/25,10:00,0.737,1.039,0.709,1.285,0.944,0.424,0.738,0.699,��쓌,4.9,��
2019/06/25,10:10,0.737,1.041,0.710,1.285,0.945,0.424,0.740,0.699,�쓌,4.4,��
2019/06/25,10:20,0.738,1.040,0.712,1.285,0.945,0.425,0.738,0.700,�쓌,3.8,��
2019/06/25,10:30,0.737,1.038,0.711,1.288,0.946,0.426,0.738,0.701,�쓌,4.6,��
2019/06/25,10:40,0.739,1.042,0.713,1.286,0.947,0.424,0.739,0.701,��쓌,2.6,��
2019/06/25,10:50,0.737,1.040,0.711,1.288,0.948,0.427,0.740,0.700,�쓌,2.6,��
2019/06/25,11:00,0.738,1.041,0.713,1.286,0.948,0.427,0.741,0.700,�쓌,3.6,��
2019/06/25,11:10,0.738,1.042,0.712,1.288,0.949,0.426,0.742,0.701,�쓌,2.6,��
2019/06/25,11:20,0.740,1.041,0.714,1.284,0.951,0.426,0.738,0.701,�쓌,2.9,��
2019/06/25,11:30,0.740,1.043,0.714,1.286,0.951,0.425,0.740,0.701,�쓌,3.2,��
2019/06/25,11:40,0.740,1.045,0.712,1.284,0.951,0.426,0.740,0.703,�쓌,2.3,��
2019/06/25,11:50,0.742,1.044,0.714,1.287,0.951,0.426,0.739,0.701,�쓌,3.7,��
2019/06/25,12:00,0.742,1.046,0.715,1.289,0.953,0.426,0.739,0.701,��쓌,4.7,��
2019/06/25,12:10,0.741,1.049,0.714,1.287,0.951,0.426,0.739,0.699,��쓌,5.1,��
2019/06/25,12:20,0.741,1.049,0.713,1.289,0.952,0.427,0.741,0.702,��쓌,6.9,��
2019/06/25,12:30,0.743,1.049,0.713,1.289,0.954,0.426,0.741,0.704,��쓌,6.6,��
2019/06/25,12:40,0.742,1.052,0.715,1.287,0.956,0.428,0.740,0.703,��쓌,7.5,��
2019/06/25,12:50,0.743,1.051,0.718,1.291,0.955,0.427,0.742,0.700,��쓌,7.3,��
2019/06/25,13:00,0.743,1.049,0.715,1.289,0.955,0.426,0.740,0.700,��쓌,5.8,��
2019/06/25,13:10,0.742,1.051,0.717,1.292,0.954,0.426,0.741,0.703,��쓌,5.2,��
2019/06/25,13:20,0.743,1.052,0.715,1.290,0.955,0.427,0.740,0.701,��쓌,5.7,��
2019/06/25,13:30,0.742,1.048,0.715,1.291,0.954,0.427,0.740,0.704,��쓌,6.0,��
2019/06/25,13:40,0.743,1.047,0.716,1.291,0.957,0.427,0.741,0.702,��쓌,6.0,��
2019/06/25,13:50,0.744,1.051,0.717,1.291,0.955,0.427,0.741,0.700,��쓌,4.6,��
2019/06/25,14:00,0.744,1.050,0.716,1.290,0.957,0.428,0.742,0.702,��쓌,5.3,��
2019/06/25,14:10,0.745,1.051,0.716,1.292,0.956,0.429,0.740,0.702,��쓌,5.2,��
2019/06/25,14:20,0.747,1.053,0.718,1.293,0.956,0.429,0.742,0.702,��쓌,6.4,��
2019/06/25,14:30,0.743,1.053,0.717,1.293,0.958,0.429,0.742,0.704,��쓌,7.3,��
2019/06/25,14:40,0.745,1.055,0.717,1.296,0.958,0.428,0.741,0.703,��쓌,6.1,��
2019/06/25,14:50,0.743,1.050,0.716,1.296,0.958,0.431,0.742,0.703,��쓌,6.9,��
2019/06/25,15:00,0.744,1.050,0.719,1.295,0.959,0.430,0.742,0.703,��쓌,6.3,��
2019/06/25,15:10,0.747,1.054,0.716,1.292,0.957,0.431,0.743,0.702,��쓌,6.3,��
2019/06/25,15:20,0.746,1.054,0.719,1.293,0.959,0.429,0.741,0.703,��쓌,6.1,��
2019/06/25,15:30,0.745,1.054,0.717,1.298,0.958,0.431,0.742,0.702,��,6.5,��
2019/06/25,15:40,0.745,1.055,0.718,1.296,0.960,0.429,0.742,0.702,��쓌,7.2,��
2019/06/25,15:50,0.744,1.056,0.717,1.297,0.957,0.431,0.740,0.703,��,6.2,��
2019/06/25,16:00,0.745,1.055,0.719,1.298,0.960,0.430,0.741,0.704,��쓌,6.9,��
2019/06/25,16:10,0.744,1.057,0.718,1.296,0.958,0.429,0.741,0.702,��쓌,7.0,��
2019/06/25,16:20,0.744,1.058,0.719,1.296,0.959,0.430,0.741,0.704,��쓌,6.9,��
2019/06/25,16:30,0.746,1.059,0.718,1.299,0.960,0.430,0.743,0.702,��,8.8,��
2019/06/25,16:40,0.745,1.058,0.718,1.296,0.962,0.429,0.743,0.703,��쓌,7.8,��
2019/06/25,16:50,0.742,1.058,0.718,1.296,0.958,0.429,0.743,0.702,��쓌,7.6,��
2019/06/25,17:00,0.745,1.055,0.720,1.297,0.958,0.430,0.742,0.703,��쓌,7.7,��
2019/06/25,17:10,0.745,1.058,0.719,1.297,0.960,0.429,0.742,0.704,��쓌,8.7,��
2019/06/25,17:20,0.746,1.057,0.721,1.297,0.959,0.430,0.743,0.704,��쓌,8.2,��
2019/06/25,17:30,0.744,1.056,0.719,1.301,0.959,0.430,0.743,0.703,��쓌,8.0,��
2019/06/25,17:40,0.744,1.060,0.718,1.300,0.957,0.431,0.742,0.703,��쓌,7.0,��
2019/06/25,17:50,0.745,1.058,0.720,1.298,0.959,0.430,0.741,0.702,��쓌,8.0,��
2019/06/25,18:00,0.743,1.060,0.719,1.299,0.958,0.430,0.743,0.703,��쓌,7.5,��
2019/06/25,18:10,0.745,1.058,0.721,1.298,0.958,0.431,0.741,0.703,��쓌,7.9,��
2019/06/25,18:20,0.743,1.061,0.720,1.297,0.959,0.431,0.741,0.703,��쓌,8.0,��
2019/06/25,18:30,0.743,1.059,0.719,1.300,0.958,0.430,0.741,0.705,��쓌,8.7,��
2019/06/25,18:40,0.744,1.059,0.717,1.298,0.958,0.429,0.740,0.705,��쓌,7.9,��
2019/06/25,18:50,0.743,1.060,0.718,1.299,0.959,0.430,0.741,0.707,��쓌,9.2,��
2019/06/25,19:00,0.744,1.060,0.719,1.299,0.960,0.430,0.741,0.707,��,7.8,��
2019/06/25,19:10,0.746,1.060,0.718,1.300,0.959,0.429,0.740,0.704,��,6.9,��
2019/06/25,19:20,0.745,1.061,0.719,1.299,0.959,0.431,0.743,0.705,��,7.2,��
2019/06/25,19:30,0.747,1.061,0.719,1.302,0.960,0.432,0.741,0.705,��,6.7,��
2019/06/25,19:40,0.743,1.061,0.721,1.302,0.960,0.431,0.742,0.706,��,5.9,��
2019/06/25,19:50,0.743,1.059,0.722,1.303,0.961,0.432,0.743,0.705,��,7.5,��
2019/06/25,20:00,0.744,1.062,0.723,1.304,0.962,0.431,0.744,0.704,��,6.3,��
2019/06/25,20:10,0.745,1.061,0.723,1.301,0.964,0.431,0.743,0.707,��,7.0,��
2019/06/25,20:20,0.746,1.061,0.721,1.302,0.962,0.432,0.743,0.705,��,6.3,��
2019/06/25,20:30,0.744,1.060,0.724,1.302,0.964,0.432,0.743,0.705,��,5.6,��
2019/06/25,20:40,0.744,1.064,0.723,1.303,0.960,0.432,0.743,0.705,��,5.9,��
2019/06/25,20:50,0.747,1.061,0.723,1.302,0.965,0.433,0.743,0.705,��,5.6,��
2019/06/25,21:00,0.746,1.061,0.721,1.301,0.962,0.433,0.744,0.706,��,5.6,��
2019/06/25,21:10,0.748,1.061,0.723,1.303,0.963,0.431,0.744,0.706,��,6.2,��
2019/06/25,21:20,0.746,1.061,0.722,1.302,0.962,0.433,0.744,0.705,��,6.1,��
2019/06/25,21:30,0.748,1.062,0.723,1.301,0.962,0.431,0.744,0.704,��,6.0,��
2019/06/25,21:40,0.748,1.061,0.722,1.301,0.963,0.432,0.744,0.706,��,6.4,��
2019/06/25,21:50,0.745,1.060,0.722,1.301,0.963,0.431,0.744,0.707,��,6.7,��
2019/06/25,22:00,0.745,1.062,0.724,1.301,0.964,0.432,0.743,0.704,��,7.1,��
2019/06/25,22:10,0.749,1.062,0.723,1.303,0.963,0.432,0.746,0.705,��,6.2,��
2019/06/25,22:20,0.748,1.062,0.720,1.303,0.964,0.433,0.745,0.706,��,4.9,��
2019/06/25,22:30,0.748,1.062,0.724,1.302,0.963,0.432,0.746,0.704,��,4.6,��
2019/06/25,22:40,0.746,1.061,0.721,1.301,0.963,0.433,0.744,0.704,��쐼,3.6,��
2019/06/25,22:50,0.746,1.063,0.722,1.301,0.964,0.432,0.746,0.707,��쐼,3.0,��
2019/06/25,23:00,0.748,1.060,0.722,1.304,0.964,0.433,0.745,0.703,��쐼,2.3,��
2019/06/25,23:10,0.748,1.061,0.722,1.302,0.963,0.434,0.744,0.705,��,2.9,��
2019/06/25,23:20,0.748,1.060,0.723,1.302,0.961,0.432,0.745,0.706,��,5.0,��
2019/06/25,23:30,0.746,1.060,0.723,1.302,0.961,0.431,0.743,0.704,��쐼,5.1,��
2019/06/25,23:40,0.749,1.060,0.722,1.303,0.962,0.432,0.745,0.706,��,5.7,��
2019/06/25,23:50,0.749,1.061,0.721,1.302,0.962,0.432,0.745,0.706,��쐼,5.5,��
